STARLINK-34025, 63824

Orbit data source: Space-Track

STARLINK-34025, 63824 is a payload satellite owned by SpaceX/Seattle (US) in LEO that was launched on Sun, 04 May 2025 UTC via an FALCON 9 launch vehicle from the Air Force Eastern Test Range (AFETR). Payload-class satellites include a variety of spacecraft equipped with specific instruments for various scientific and technological missions. These include communications satellites like Starlink; space stations such as the ISS; scientific satellites like the Hubble; Earth observation satellites from companies like Planet Labs, Umbra, and HawkEye 360; GPS; miniature CubeSats for education and research; and military/defense satellites.

Loading next visibility...
Identifier
63824, 2025-092W
Orbit
LEO
Country
Flag of USUS
Related business
Manufacturer
SpaceX/Seattle
Mission
Operational Commercial Communications
Bus & Motor
STARLINK V2MO, Unknown motor
Mass
575 kg wet, ~530 kg dry
Launch date (UTC)
2025-05-04 (1 year ago)
Launch vehicle
FALCON 9
Launch site
Air Force Eastern Test Range (AFETR)
Object type
Payload
Rocket body
Debris
Shape & HBR
Box + 2 Pan, 17.7 m
Radar Cross Section
36.964 m², Large (>1 m²)

Expand to show TLE details & history
Last TLE update: 15 hours ago

TLE from 15 hours ago
0 STARLINK-34025
1 63824U 25092W   26124.56138534  .00015415  00000-0  56857-3 0  9991
2 63824  42.9997 216.6520 0001451 264.2323  95.8363 15.27576586 57109
Epoch: 2026-05-04T13:28Z
TLE epoch observation values (Epoch: 2026-05-04T13:28:23.693Z)
Latitude
-0.00003°
Longitude
152.10444°
Altitude
482.936 km
Speed
7.626 km/s
True Right ascension
14h 26m 36s
True Declination
0° 00' 00"
Sunlit
Object was in full shadow at epoch
Visualization orbit readout
Latitude
Unknown
Longitude
Unknown
Altitude
Unknown
Speed
Unknown
Apparent Right ascension
Unknown
Apparent Declination
Unknown
Sunlit
N/A
Visualization observer readout
Local Sidereal Time
12:49:11
Azimuth
Unknown
Elevation
Unknown
Doppler factor
Unknown
Orbital elements
Apogee altitude
486 km
Perigee altitude
484.009 km
Semi-major axis
6,863.142 km
Eccentricity
0.00015
Inclination
42.9997°
RAAN
216.652°
Arg. of periapsis
264.2323°
True anomaly
95.85284°
Mean anomaly
95.8363°
Eccentric anomaly
95.84457°
Mean motion
3.81732 °/min
Orbital period
94.31 mins
BSTAR
0.00056857
Loading maneuver chart data...
Computing Atmospheric mass density...
Loading historical data...
Loading historical data...
Loading historical data...
Loading historical data...
Loading historical data...
Loading historical data...
Loading historical data...

Documentation

Showing up to 5 results
|